Location: *
(38.4303°S, 157.0822°W)
Time: 15:59:01
(UTC+00:00)

SMAP - Pass Details

Date: 21 May 2024
Orbit: 681 x 683 km, 98.1° (Epoch: 23 June)

Event Time Altitude Azimuth Distance (km) Brightness Sun altitude
Rises 16:05:38 0° 8° (N) 3,033 6.7 -16.2°
Reaches altitude 10° 16:07:52 10° 5° (N) 2,126 5.8 -15.7°
Maximum altitude 16:12:30 68° 282° (WNW) 743 3.0 -14.9°
Drops below altitude 10° 16:17:13 10° 198° (SSW) 2,157 5.3 -14.0°
Sets 16:19:30 0° 195° (SSW) 3,081 6.1 -13.5°
